Location: Krakow
(50.0830°N, 19.9170°E)
Time: 22:53:07
(UTC+02:00)

Vanguard 1 Rocket - Pass Details

Date: 12 December 2023
Orbit: 650 x 4218 km, 34.3° (Epoch: 13 October)

Event Time Altitude Azimuth Distance (km) Brightness Sun altitude
Rises 07:06:54 0° 269° (W) 7,979 11.7 -3.9°
Reaches altitude 10° 07:13:36 10° 262° (W) 6,498 11.3 -2.9°
Maximum altitude 07:29:11 34° 208° (SSW) 3,379 10.4 -0.9°
Drops below altitude 10° 07:38:20 10° 148° (SSE) 3,800 12.1 0.3°
Sets 07:41:07 0° 138° (SE) 4,416 13.4 0.6°
